"Time","Value","Approval","myLocation"
"2023-05-06 00:00",6.05341186145922,"Approved","OW304"
"2023-05-06 01:00",6.05501816870972,"Approved","OW304"
"2023-05-06 02:00",6.05375655196022,"Approved","OW304"
"2023-05-06 03:00",6.05319282421071,"Approved","OW304"
"2023-05-06 04:00",6.05301910846121,"Approved","OW304"
"2023-05-06 05:00",6.05215948971171,"Approved","OW304"
"2023-05-06 06:00",6.0512977599622,"Approved","OW304"
"2023-05-06 07:00",6.0528440202127,"Approved","OW304"
"2023-05-06 08:00",6.05528029346319,"Approved","OW304"
"2023-05-06 09:00",6.05707261571369,"Approved","OW304"
"2023-05-06 10:00",6.05927492596418,"Approved","OW304"
"2023-05-06 11:00",6.06038123321468,"Approved","OW304"
"2023-05-06 12:00",6.06237555246518,"Approved","OW304"
"2023-05-06 13:00",6.06378985071567,"Approved","OW304"
"2023-05-06 14:00",6.06460814296617,"Approved","OW304"
"2023-05-06 15:00",6.06562643621666,"Approved","OW304"
"2023-05-06 16:00",6.06674872446716,"Approved","OW304"
"2023-05-06 17:00",6.06699298771766,"Approved","OW304"
"2023-05-06 18:00",6.06813924896815,"Approved","OW304"
"2023-05-06 19:00",6.06954355721865,"Approved","OW304"
"2023-05-06 20:00",6.07188981846914,"Approved","OW304"
"2023-05-06 21:00",6.07379013171964,"Approved","OW304"
"2023-05-06 22:00",6.07571841297014,"Approved","OW304"
"2023-05-06 23:00",6.07716467422063,"Approved","OW304"
"2023-05-07 00:00",6.07708296747113,"Approved","OW304"
"2023-05-07 01:00",6.07750125972163,"Approved","OW304"
"2023-05-07 02:00",6.07771755497212,"Approved","OW304"
"2023-05-07 03:00",6.07856781222262,"Approved","OW304"
"2023-05-07 04:00",6.07978810247311,"Approved","OW304"
"2023-05-07 05:00",6.07988641772361,"Approved","OW304"
"2023-05-07 06:00",6.0806486609741,"Approved","OW304"
"2023-05-07 07:00",6.0844348772246,"Approved","OW304"
"2023-05-07 08:00",6.0870671534751,"Approved","OW304"
"2023-05-07 09:00",6.08987745572559,"Approved","OW304"
"2023-05-07 10:00",6.09097177597609,"Approved","OW304"
"2023-05-07 11:00",6.09195810522658,"Approved","OW304"
"2023-05-07 12:00",6.09285442247708,"Approved","OW304"
"2023-05-07 13:00",6.09406871972758,"Approved","OW304"
"2023-05-07 14:00",6.09355904497807,"Approved","OW304"
"2023-05-07 15:00",6.09362539622857,"Approved","OW304"
"2023-05-07 16:00",6.09272371147906,"Approved","OW304"
"2023-05-07 17:00",6.09131203872956,"Approved","OW304"
"2023-05-07 18:00",6.08897439498006,"Approved","OW304"
"2023-05-07 19:00",6.08684674023055,"Approved","OW304"
"2023-05-07 20:00",6.08634705348105,"Approved","OW304"
"2023-05-07 21:00",6.08759730973154,"Approved","OW304"
"2023-05-07 22:00",6.08950361598204,"Approved","OW304"
"2023-05-07 23:00",6.09092590423254,"Approved","OW304"
"2023-05-08 00:00",6.09109425448303,"Approved","OW304"
"2023-05-08 01:00",6.08855661073353,"Approved","OW304"
"2023-05-08 02:00",6.08644693498402,"Approved","OW304"
"2023-05-08 03:00",6.08536123223452,"Approved","OW304"
"2023-05-08 04:00",6.08365355448502,"Approved","OW304"
"2023-05-08 05:00",6.08334987273551,"Approved","OW304"
"2023-05-08 06:00",6.08307815398601,"Approved","OW304"
"2023-05-08 07:00",6.0831864582365,"Approved","OW304"
"2023-05-08 08:00",6.082338825487,"Approved","OW304"
"2023-05-08 09:00",6.0800091727375,"Approved","OW304"
"2023-05-08 10:00",6.08007152898799,"Approved","OW304"
"2023-05-08 11:00",6.07982789223849,"Approved","OW304"
"2023-05-08 12:00",6.07727426748898,"Approved","OW304"
"2023-05-08 13:00",6.07499666873948,"Approved","OW304"
"2023-05-08 14:00",6.07237500698998,"Approved","OW304"
"2023-05-08 15:00",6.07031139224047,"Approved","OW304"
"2023-05-08 16:00",6.06765377149097,"Approved","OW304"
"2023-05-08 17:00",6.06677006674146,"Approved","OW304"
"2023-05-08 18:00",6.06586238899196,"Approved","OW304"
"2023-05-08 19:00",6.06434672024246,"Approved","OW304"
"2023-05-08 20:00",6.06545491149295,"Approved","OW304"
"2023-05-08 21:00",6.06794112674345,"Approved","OW304"
"2023-05-08 22:00",6.07167140599394,"Approved","OW304"
"2023-05-08 23:00",6.07436361524444,"Approved","OW304"
"2023-05-09 00:00",6.07884184049494,"Approved","OW304"
"2023-05-09 01:00",6.08099609174543,"Approved","OW304"
"2023-05-09 02:00",6.08430428299593,"Approved","OW304"
"2023-05-09 03:00",6.08708250824642,"Approved","OW304"
"2023-05-09 04:00",6.09067871249692,"Approved","OW304"
"2023-05-09 05:00",6.09466093274742,"Approved","OW304"
"2023-05-09 06:00",6.09783116699791,"Approved","OW304"
"2023-05-09 07:00",6.10165733724841,"Approved","OW304"
"2023-05-09 08:00",6.1047716344989,"Approved","OW304"
"2023-05-09 09:00",6.1064719477494,"Approved","OW304"
"2023-05-09 10:00",6.1104162109999,"Approved","OW304"
"2023-05-09 11:00",6.11352251725039,"Approved","OW304"
"2023-05-09 12:00",6.11630085550089,"Approved","OW304"
"2023-05-09 13:00",6.11613124875138,"Approved","OW304"
"2023-05-09 14:00",6.11540758900188,"Approved","OW304"
"2023-05-09 15:00",6.11244397425238,"Approved","OW304"
"2023-05-09 16:00",6.10808235850287,"Approved","OW304"
"2023-05-09 17:00",6.10285070775337,"Approved","OW304"
"2023-05-09 18:00",6.09965102100386,"Approved","OW304"
"2023-05-09 19:00",6.10268929125436,"Approved","OW304"
"2023-05-09 20:00",6.10723155650486,"Approved","OW304"
"2023-05-09 21:00",6.11341177975535,"Approved","OW304"
"2023-05-09 22:00",6.11579611100585,"Approved","OW304"
"2023-05-09 23:00",6.11637045325634,"Approved","OW304"
"2023-05-10 00:00",6.11405078950684,"Approved","OW304"
"2023-05-10 01:00",6.11066308875734,"Approved","OW304"
"2023-05-10 02:00",6.10856939500783,"Approved","OW304"
"2023-05-10 03:00",6.10697969725833,"Approved","OW304"
"2023-05-10 04:00",6.10622806950882,"Approved","OW304"
"2023-05-10 05:00",6.10349641875932,"Approved","OW304"
"2023-05-10 06:00",6.10263668700981,"Approved","OW304"
"2023-05-10 07:00",6.10274099526031,"Approved","OW304"
"2023-05-10 08:00",6.10335129751081,"Approved","OW304"
"2023-05-10 09:00",6.1043116557613,"Approved","OW304"
"2023-05-10 10:00",6.1039059760118,"Approved","OW304"
"2023-05-10 11:00",6.10577033026229,"Approved","OW304"
"2023-05-10 12:00",6.10510671651279,"Approved","OW304"
"2023-05-10 13:00",6.10361713076329,"Approved","OW304"
"2023-05-10 14:00",6.10085351701378,"Approved","OW304"
"2023-05-10 15:00",6.09684595226428,"Approved","OW304"
"2023-05-10 16:00",6.09199232751478,"Approved","OW304"
"2023-05-10 17:00",6.08573470576527,"Approved","OW304"
"2023-05-10 18:00",6.08059106901577,"Approved","OW304"
"2023-05-10 19:00",6.07813133726626,"Approved","OW304"
"2023-05-10 20:00",6.07801755251676,"Approved","OW304"
"2023-05-10 21:00",6.08125570976726,"Approved","OW304"
"2023-05-10 22:00",6.08389797501775,"Approved","OW304"
"2023-05-10 23:00",6.08592425926825,"Approved","OW304"
"2023-05-11 00:00",6.08842046351874,"Approved","OW304"
"2023-05-11 01:00",6.09248270676924,"Approved","OW304"
"2023-05-11 02:00",6.09399500601973,"Approved","OW304"
"2023-05-11 03:00",6.09700119927023,"Approved","OW304"
"2023-05-11 04:00",6.09933347652073,"Approved","OW304"
"2023-05-11 05:00",6.09968173577122,"Approved","OW304"
"2023-05-11 06:00",6.10290590802172,"Approved","OW304"
"2023-05-11 07:00",6.10741809427221,"Approved","OW304"
"2023-05-11 08:00",6.11197833952271,"Approved","OW304"
"2023-05-11 09:00",6.11541461177321,"Approved","OW304"
"2023-05-11 10:00",6.1170789660237,"Approved","OW304"
"2023-05-11 11:00",6.1181493132742,"Approved","OW304"
"2023-05-11 12:00",6.11994962652469,"Approved","OW304"
"2023-05-11 13:00",6.12104394677519,"Approved","OW304"
"2023-05-11 14:00",6.12088632602569,"Approved","OW304"
"2023-05-11 15:00",6.11841671827618,"Approved","OW304"
"2023-05-11 16:00",6.11406908552668,"Approved","OW304"
"2023-05-11 17:00",6.10973343977717,"Approved","OW304"
"2023-05-11 18:00",6.10732176702767,"Approved","OW304"
"2023-05-11 19:00",6.10715604127817,"Approved","OW304"
"2023-05-11 20:00",6.10850430052866,"Approved","OW304"
"2023-05-11 21:00",6.11171249077916,"Approved","OW304"
"2023-05-11 22:00",6.11405076102965,"Approved","OW304"
"2023-05-11 23:00",6.11576905428015,"Approved","OW304"
"2023-05-12 00:00",6.11755127453065,"Approved","OW304"
"2023-05-12 01:00",6.11930752478114,"Approved","OW304"
"2023-05-12 02:00",6.12148175403164,"Approved","OW304"
"2023-05-12 03:00",6.12223201028213,"Approved","OW304"
"2023-05-12 04:00",6.12339225553263,"Approved","OW304"
"2023-05-12 05:00",6.12445050278313,"Approved","OW304"
"2023-05-12 06:00",6.12625469803362,"Approved","OW304"
"2023-05-12 07:00",6.12947887128412,"Approved","OW304"
"2023-05-12 08:00",6.13386708453461,"Approved","OW304"
"2023-05-12 09:00",6.13821534378511,"Approved","OW304"
"2023-05-12 10:00",6.14352165003561,"Approved","OW304"
"2023-05-12 11:00",6.1483279562861,"Approved","OW304"
"2023-05-12 12:00",6.1508343765366,"Approved","OW304"
"2023-05-12 13:00",6.15385466678709,"Approved","OW304"
"2023-05-12 14:00",6.15402101903759,"Approved","OW304"
"2023-05-12 15:00",6.15044142228809,"Approved","OW304"
"2023-05-12 16:00",6.14539978353858,"Approved","OW304"
"2023-05-12 17:00",6.14308011878908,"Approved","OW304"
"2023-05-12 18:00",6.13994247603957,"Approved","OW304"
"2023-05-12 19:00",6.13752880429007,"Approved","OW304"
"2023-05-12 20:00",6.13776307954057,"Approved","OW304"
"2023-05-12 21:00",6.13860934079106,"Approved","OW304"
"2023-05-12 22:00",6.14026559004156,"Approved","OW304"
"2023-05-12 23:00",6.14214781029205,"Approved","OW304"
"2023-05-13 00:00",6.14697797654255,"Approved","OW304"
"2023-05-13 01:00",6.14822024179305,"Approved","OW304"
"2023-05-13 02:00",6.14812854604354,"Approved","OW304"
"2023-05-13 03:00",6.14825682829404,"Approved","OW304"
"2023-05-13 04:00",6.15117300954453,"Approved","OW304"
"2023-05-13 05:00",6.15419529779503,"Approved","OW304"
"2023-05-13 06:00",6.15666952704553,"Approved","OW304"
"2023-05-13 07:00",6.15899780929602,"Approved","OW304"
"2023-05-13 08:00",6.16052009754652,"Approved","OW304"
"2023-05-13 09:00",6.16254438279701,"Approved","OW304"
"2023-05-13 10:00",6.16282272104751,"Approved","OW304"
"2023-05-13 11:00",6.16389107129801,"Approved","OW304"
"2023-05-13 12:00",6.1632174685485,"Approved","OW304"
"2023-05-13 13:00",6.161345862799,"Approved","OW304"
"2023-05-13 14:00",6.15690833304949,"Approved","OW304"
"2023-05-13 15:00",6.14896081329999,"Approved","OW304"
"2023-05-13 16:00",6.14052528055049,"Approved","OW304"
"2023-05-13 17:00",6.13188175780098,"Approved","OW304"
"2023-05-13 18:00",6.12609017505148,"Approved","OW304"
"2023-05-13 19:00",6.12171457430197,"Approved","OW304"
"2023-05-13 20:00",6.11819091455247,"Approved","OW304"
"2023-05-13 21:00",6.11687924180297,"Approved","OW304"
"2023-05-13 22:00",6.11496157505346,"Approved","OW304"
"2023-05-13 23:00",6.11475589530396,"Approved","OW304"
"2023-05-14 00:00",6.11407818355445,"Approved","OW304"
"2023-05-14 01:00",6.11494042680495,"Approved","OW304"
"2023-05-14 02:00",6.11595272605545,"Approved","OW304"
"2023-05-14 03:00",6.11522107530594,"Approved","OW304"
"2023-05-14 04:00",6.11468942555644,"Approved","OW304"
"2023-05-14 05:00",6.11133380180693,"Approved","OW304"
"2023-05-14 06:00",6.10930215105743,"Approved","OW304"
"2023-05-14 07:00",6.10788248730793,"Approved","OW304"
"2023-05-14 08:00",6.10682486655842,"Approved","OW304"
"2023-05-14 09:00",6.10544726780892,"Approved","OW304"
"2023-05-14 10:00",6.10304969205941,"Approved","OW304"
"2023-05-14 11:00",6.09890616930991,"Approved","OW304"
"2023-05-14 12:00",6.09336664056041,"Approved","OW304"
"2023-05-14 13:00",6.0873051378109,"Approved","OW304"
"2023-05-14 14:00",6.0821955750614,"Approved","OW304"
"2023-05-14 15:00",6.07683207431189,"Approved","OW304"
"2023-05-14 16:00",6.07126046956239,"Approved","OW304"
"2023-05-14 17:00",6.06779285981288,"Approved","OW304"
"2023-05-14 18:00",6.06120127706338,"Approved","OW304"
"2023-05-14 19:00",6.05497362231388,"Approved","OW304"
"2023-05-14 20:00",6.05387193756437,"Approved","OW304"
"2023-05-14 21:00",6.05624017381487,"Approved","OW304"
"2023-05-14 22:00",6.05883049806536,"Approved","OW304"
"2023-05-14 23:00",6.06014879131586,"Approved","OW304"
"2023-05-15 00:00",6.06323900256636,"Approved","OW304"
"2023-05-15 01:00",6.06402322081685,"Approved","OW304"
"2023-05-15 02:00",6.06419956106735,"Approved","OW304"
"2023-05-15 03:00",6.06188988531785,"Approved","OW304"
"2023-05-15 04:00",6.06065224156834,"Approved","OW304"
"2023-05-15 05:00",6.05967453081884,"Approved","OW304"
"2023-05-15 06:00",6.06018683006933,"Approved","OW304"
"2023-05-15 07:00",6.06339513431983,"Approved","OW304"
"2023-05-15 08:00",6.06476348357033,"Approved","OW304"
"2023-05-15 09:00",6.06621984682082,"Approved","OW304"
"2023-05-15 10:00",6.06810018307132,"Approved","OW304"
"2023-05-15 11:00",6.06976054132181,"Approved","OW304"
"2023-05-15 12:00",6.07100292057231,"Approved","OW304"
"2023-05-15 13:00",6.07063531082281,"Approved","OW304"
"2023-05-15 14:00",6.0691257480733,"Approved","OW304"
"2023-05-15 15:00",6.0647301703238,"Approved","OW304"
"2023-05-15 16:00",6.05752460357429,"Approved","OW304"
"2023-05-15 17:00",6.05114500782479,"Approved","OW304"
"2023-05-15 18:00",6.04666740907528,"Approved","OW304"
"2023-05-15 19:00",6.04467571332578,"Approved","OW304"
"2023-05-15 20:00",6.04592397257628,"Approved","OW304"
"2023-05-15 21:00",6.05073216382677,"Approved","OW304"
"2023-05-15 22:00",6.05699640407727,"Approved","OW304"
"2023-05-15 23:00",6.06382257432776,"Approved","OW304"
"2023-05-16 00:00",6.07173864257826,"Approved","OW304"
"2023-05-16 01:00",6.07903872982876,"Approved","OW304"
"2023-05-16 02:00",6.08496090507925,"Approved","OW304"
"2023-05-16 03:00",6.09060305732975,"Approved","OW304"
"2023-05-16 04:00",6.09678327958024,"Approved","OW304"
"2023-05-16 05:00",6.10095551083074,"Approved","OW304"
"2023-05-16 06:00",6.10667568808124,"Approved","OW304"
"2023-05-16 07:00",6.11239398133173,"Approved","OW304"
"2023-05-16 08:00",6.11912814258223,"Approved","OW304"
"2023-05-16 09:00",6.12618638983272,"Approved","OW304"
"2023-05-16 10:00",6.13177271908322,"Approved","OW304"
"2023-05-16 11:00",6.13619700533372,"Approved","OW304"
"2023-05-16 12:00",6.13802939558421,"Approved","OW304"
"2023-05-16 13:00",6.13474979983471,"Approved","OW304"
"2023-05-16 14:00",6.1273102710852,"Approved","OW304"
"2023-05-16 15:00",6.1190567593357,"Approved","OW304"
"2023-05-16 16:00",6.1093912605862,"Approved","OW304"
"2023-05-16 17:00",6.10128769183669,"Approved","OW304"
"2023-05-16 18:00",6.09646603008719,"Approved","OW304"
"2023-05-16 19:00",6.09310840933768,"Approved","OW304"
"2023-05-16 20:00",6.09195466958818,"Approved","OW304"
"2023-05-16 21:00",6.09496286083868,"Approved","OW304"
"2023-05-16 22:00",6.09861911108917,"Approved","OW304"
"2023-05-16 23:00",6.10041942433967,"Approved","OW304"
"2023-05-17 00:00",6.09707378959016,"Approved","OW304"
"2023-05-17 01:00",6.09509208184066,"Approved","OW304"
"2023-05-17 02:00",6.09442835509116,"Approved","OW304"
"2023-05-17 03:00",6.09535064334165,"Approved","OW304"
"2023-05-17 04:00",6.09502898159215,"Approved","OW304"
"2023-05-17 05:00",6.09514727384264,"Approved","OW304"
"2023-05-17 06:00",6.09584359209314,"Approved","OW304"
"2023-05-17 07:00",6.09569995534364,"Approved","OW304"
"2023-05-17 08:00",6.09403634059413,"Approved","OW304"
"2023-05-17 09:00",6.09325274884463,"Approved","OW304"
"2023-05-17 10:00",6.09129113309512,"Approved","OW304"
"2023-05-17 11:00",6.08952152534562,"Approved","OW304"
"2023-05-17 12:00",6.08628199759612,"Approved","OW304"
"2023-05-17 13:00",6.07942648684661,"Approved","OW304"
"2023-05-17 14:00",6.07209495009711,"Approved","OW304"
"2023-05-17 15:00",6.0644134693476,"Approved","OW304"
"2023-05-17 16:00",6.0572699455981,"Approved","OW304"
"2023-05-17 17:00",6.0490944588486,"Approved","OW304"
"2023-05-17 18:00",6.04208090109909,"Approved","OW304"
"2023-05-17 19:00",6.03814925034959,"Approved","OW304"
"2023-05-17 20:00",6.03767553460008,"Approved","OW304"
"2023-05-17 21:00",6.04003378185058,"Approved","OW304"
"2023-05-17 22:00",6.04174608210108,"Approved","OW304"
"2023-05-17 23:00",6.04328634935157,"Approved","OW304"
"2023-05-18 00:00",6.04400664060207,"Approved","OW304"
"2023-05-18 01:00",6.04542493285256,"Approved","OW304"
"2023-05-18 02:00",6.04604122810306,"Approved","OW304"
"2023-05-18 03:00",6.04655352735356,"Approved","OW304"
"2023-05-18 04:00",6.04821776860405,"Approved","OW304"
"2023-05-18 05:00",6.04982007985455,"Approved","OW304"
"2023-05-18 06:00",6.05085435410504,"Approved","OW304"
"2023-05-18 07:00",6.05484256735554,"Approved","OW304"
"2023-05-18 08:00",6.05716885160604,"Approved","OW304"
"2023-05-18 09:00",6.06183708785653,"Approved","OW304"
"2023-05-18 10:00",6.06565937610703,"Approved","OW304"
"2023-05-18 11:00",6.06836368435752,"Approved","OW304"
"2023-05-18 12:00",6.07075400960802,"Approved","OW304"
"2023-05-18 13:00",6.07374422085852,"Approved","OW304"
"2023-05-18 14:00",6.07684852910901,"Approved","OW304"
"2023-05-18 15:00",6.07748080635951,"Approved","OW304"
"2023-05-18 16:00",6.07727312861,"Approved","OW304"
"2023-05-18 17:00",6.0771774368605,"Approved","OW304"
"2023-05-18 18:00",6.076599725111,"Approved","OW304"
"2023-05-18 19:00",6.07825997036149,"Approved","OW304"
"2023-05-18 20:00",6.08145217961199,"Approved","OW304"
"2023-05-18 21:00",6.08681031386248,"Approved","OW304"
"2023-05-18 22:00",6.09227855011298,"Approved","OW304"
"2023-05-18 23:00",6.09822869336347,"Approved","OW304"
"2023-05-19 00:00",6.10336285461397,"Approved","OW304"
"2023-05-19 01:00",6.10936904786447,"Approved","OW304"
"2023-05-19 02:00",6.11344927011496,"Approved","OW304"
"2023-05-19 03:00",6.11733748436546,"Approved","OW304"
"2023-05-19 04:00",6.12101770661596,"Approved","OW304"
"2023-05-19 05:00",6.12572190186645,"Approved","OW304"
"2023-05-19 06:00",6.13155007011695,"Approved","OW304"
"2023-05-19 07:00",6.13724028136744,"Approved","OW304"
"2023-05-19 08:00",6.14160452261794,"Approved","OW304"
"2023-05-19 09:00",6.14710883086843,"Approved","OW304"
"2023-05-19 10:00",6.15090914411893,"Approved","OW304"
"2023-05-19 11:00",6.15536350936943,"Approved","OW304"
"2023-05-19 12:00",6.15750988361992,"Approved","OW304"
"2023-05-19 13:00",6.15543028787042,"Approved","OW304"
"2023-05-19 14:00",6.15138465312091,"Approved","OW304"
"2023-05-19 15:00",6.14674512537141,"Approved","OW304"
"2023-05-19 16:00",6.13841358762191,"Approved","OW304"
"2023-05-19 17:00",6.1321960348724,"Approved","OW304"
"2023-05-19 18:00",6.1259764841229,"Approved","OW304"
"2023-05-19 19:00",6.12012086137339,"Approved","OW304"
"2023-05-19 20:00",6.11855513562389,"Approved","OW304"
"2023-05-19 21:00",6.12192936487439,"Approved","OW304"
"2023-05-19 22:00",6.12437163112488,"Approved","OW304"
"2023-05-19 23:00",6.12615784637538,"Approved","OW304"
"2023-05-20 00:00",6.13171997662587,"Approved","OW304"
"2023-05-20 01:00",6.13614625987637,"Approved","OW304"
"2023-05-20 02:00",6.13908852612687,"Approved","OW304"
"2023-05-20 03:00",6.13990282337736,"Approved","OW304"
"2023-05-20 04:00",6.14147505462786,"Approved","OW304"
"2023-05-20 05:00",6.14501931787835,"Approved","OW304"
"2023-05-20 06:00",6.14940553412885,"Approved","OW304"
"2023-05-20 07:00",6.15416777637935,"Approved","OW304"
"2023-05-20 08:00",6.15889605862984,"Approved","OW304"
"2023-05-20 09:00",6.16138038988034,"Approved","OW304"
"2023-05-20 10:00",6.16236472113083,"Approved","OW304"
"2023-05-20 11:00",6.16229910938133,"Approved","OW304"
"2023-05-20 12:00",6.16002550663183,"Approved","OW304"
"2023-05-20 13:00",6.15744191488232,"Approved","OW304"
"2023-05-20 14:00",6.15354633713282,"Approved","OW304"
"2023-05-20 15:00",6.14732678638331,"Approved","OW304"
"2023-05-20 16:00",6.14059524863381,"Approved","OW304"
"2023-05-20 17:00",6.13450766188431,"Approved","OW304"
"2023-05-20 18:00",6.1293340591348,"Approved","OW304"
"2023-05-20 19:00",6.1270963023853,"Approved","OW304"
"2023-05-20 20:00",6.12758462863579,"Approved","OW304"
"2023-05-20 21:00",6.13062278588629,"Approved","OW304"
"2023-05-20 22:00",6.13522897913679,"Approved","OW304"
"2023-05-20 23:00",6.13880720338728,"Approved","OW304"
"2023-05-21 00:00",6.14357743763778,"Approved","OW304"
"2023-05-21 01:00",6.14695166688827,"Approved","OW304"
"2023-05-21 02:00",6.14836996013877,"Approved","OW304"
"2023-05-21 03:00",6.14865229338927,"Approved","OW304"
"2023-05-21 04:00",6.14929256163976,"Approved","OW304"
"2023-05-21 05:00",6.15050486089026,"Approved","OW304"
"2023-05-21 06:00",6.15353502714075,"Approved","OW304"
"2023-05-21 07:00",6.15688328539125,"Approved","OW304"
"2023-05-21 08:00",6.16183953564175,"Approved","OW304"
"2023-05-21 09:00",6.16726570589224,"Approved","OW304"
"2023-05-21 10:00",6.17017612114274,"Approved","OW304"
"2023-05-21 11:00",6.16883048639323,"Approved","OW304"
"2023-05-21 12:00",6.16940682664373,"Approved","OW304"
"2023-05-21 13:00",6.16877118089423,"Approved","OW304"
"2023-05-21 14:00",6.16793953114472,"Approved","OW304"
"2023-05-21 15:00",6.16630388439522,"Approved","OW304"
"2023-05-21 16:00",6.16272029364571,"Approved","OW304"
"2023-05-21 17:00",6.15958664489621,"Approved","OW304"
"2023-05-21 18:00",6.15814900114671,"Approved","OW304"
"2023-05-21 19:00",6.1588372143972,"Approved","OW304"
"2023-05-21 20:00",6.1627414106477,"Approved","OW304"
"2023-05-21 21:00",6.16597768289819,"Approved","OW304"
"2023-05-21 22:00",6.16751395514869,"Approved","OW304"
"2023-05-21 23:00",6.16738030639919,"Approved","OW304"
"2023-05-22 00:00",6.16821857664968,"Approved","OW304"
"2023-05-22 01:00",6.16903487190018,"Approved","OW304"
"2023-05-22 02:00",6.16834517415067,"Approved","OW304"
"2023-05-22 03:00",6.16866946040117,"Approved","OW304"
"2023-05-22 04:00",6.16906378065166,"Approved","OW304"
"2023-05-22 05:00",6.17025010890216,"Approved","OW304"
"2023-05-22 06:00",6.17266840215266,"Approved","OW304"
"2023-05-22 07:00",6.17625273340315,"Approved","OW304"
"2023-05-22 08:00",6.17715704265365,"Approved","OW304"
"2023-05-22 09:00",6.17970541490415,"Approved","OW304"
"2023-05-22 10:00",6.17930373015464,"Approved","OW304"
"2023-05-22 11:00",6.18032002540514,"Approved","OW304"
"2023-05-22 12:00",6.18203632065563,"Approved","OW304"
"2023-05-22 13:00",6.18249667890613,"Approved","OW304"
"2023-05-22 14:00",6.18258700315663,"Approved","OW304"
"2023-05-22 15:00",6.18177932540712,"Approved","OW304"
"2023-05-22 16:00",6.17884168165762,"Approved","OW304"
"2023-05-22 17:00",6.17787395890811,"Approved","OW304"
"2023-05-22 18:00",6.17709624715861,"Approved","OW304"
"2023-05-22 19:00",6.1764065494091,"Approved","OW304"
"2023-05-22 20:00",6.1763248416596,"Approved","OW304"
"2023-05-22 21:00",6.1776990719101,"Approved","OW304"
"2023-05-22 22:00",6.18102124616059,"Approved","OW304"
"2023-05-22 23:00",6.18386950541109,"Approved","OW304"
"2023-05-23 00:00",6.18315994366159,"Approved","OW304"
"2023-05-23 01:00",6.17834027891208,"Approved","OW304"
"2023-05-23 02:00",6.17674259016258,"Approved","OW304"
"2023-05-23 03:00",6.17534090541307,"Approved","OW304"
"2023-05-23 04:00",6.17513322766357,"Approved","OW304"
"2023-05-23 05:00",6.17522554991407,"Approved","OW304"
"2023-05-23 06:00",6.17500788416456,"Approved","OW304"
"2023-05-23 07:00",6.17445026241506,"Approved","OW304"
"2023-05-23 08:00",6.17556456066555,"Approved","OW304"
"2023-05-23 09:00",6.17893091191605,"Approved","OW304"
"2023-05-23 10:00",6.18016530016654,"Approved","OW304"
"2023-05-23 11:00",6.18248159541704,"Approved","OW304"
"2023-05-23 12:00",6.18171798066754,"Approved","OW304"
"2023-05-23 13:00",6.17737234591803,"Approved","OW304"
"2023-05-23 14:00",6.17456466916853,"Approved","OW304"
"2023-05-23 15:00",6.17069905641902,"Approved","OW304"
"2023-05-23 16:00",6.16663943766952,"Approved","OW304"
"2023-05-23 17:00",6.16228381492002,"Approved","OW304"
"2023-05-23 18:00",6.15916015517051,"Approved","OW304"
"2023-05-23 19:00",6.15786845942101,"Approved","OW304"